GW0946 Weather Reports


time (UTC)temp
F
wind
direction
speed
knots
gust
knots
rain 1hr
in
rain 24hr
in
rain mn
in
humidity
%
barometer
mb
20260503050055 46 0 0.0 0.9 0.00 0.06 0.06 87 1018.6
20260503044612 47 0 0.0 0.9 0.00 0.06 0.06 88 1018.7
20260503043056 47 253 0.0 0.9 0.00 0.06 0.06 87 1018.5
20260503041612 47 0 0.0 0.9 0.01 0.06 0.06 86 1018.5
20260503040054 47 0 0.0 0.9 0.02 0.06 0.06 86 1018.2
20260503034554 47 155 0.9 5.2 0.03 0.06 0.06 83 1018.0
20260503033114 48 281 0.0 2.6 0.03 0.06 0.06 82 1018.2
20260503031554 48 251 1.7 3.5 0.02 0.05 0.05 80 1017.8
20260503030105 51 267 0.9 1.7 0.01 0.04 0.04 75 1018.5
20260503024601 52 231 0.9 3.5 0.00 0.03 0.03 64 1018.1
20260503023051 52 279 0.0 3.5 0.00 0.03 0.03 63 1017.2
20260503021552 53 278 0.0 6.1 0.00 0.03 0.03 62 1017.0
20260503020055 54 316 1.7 8.7 0.00 0.03 0.03 60 1016.9
20260503014551 55 300 0.9 1.7 0.00 0.03 0.03 54 1016.9
20260503013049 56 315 0.0 0.9 0.00 0.03 0.03 53 1017.0
20260503011601 56 316 0.9 1.7 0.01 0.03 0.03 56 1017.0
20260503010052 55 0 0.0 2.6 0.02 0.03 0.03 59 1017.2
20260503004551 53 103 0.0 6.1 0.02 0.03 0.03 59 1017.2
20260503003100 54 44 2.6 12.2 0.02 0.03 0.03 60 1017.5
20260503001550 55 236 5.2 12.2 0.01 0.02 0.02 52 1017.5
20260503000053 57 250 1.7 9.6 0.01 0.01 0.01 50 1017.1
20260502234554 58 135 2.6 9.6 0.01 0.01 0.01 42 1016.5
20260502233049 58 214 1.7 7.0 0.01 0.01 0.01 41 1016.7
20260502231556 57 270 0.0 9.6 0.01 0.01 0.01 51 1017.0
20260502230051 62 126 1.7 13.0 0.00 0.00 0.00 36 1017.1
20260502224551 64 205 2.6 7.0 0.00 0.00 0.00 30 1016.7
20260502223054 65 239 2.6 6.1 0.00 0.00 0.00 30 1016.6
20260502221555 64 252 1.7 6.1 0.00 0.00 0.00 31 1016.7
20260502220141 63 216 0.9 6.1 0.00 0.00 0.00 31 1017.3
20260502214602 64 291 2.6 6.1 0.00 0.00 0.00 30 1017.4
20260502213104 63 277 2.6 7.0 0.00 0.00 0.00 30 1017.6
20260502211552 64 204 1.7 5.2 0.00 0.00 0.00 30 1017.7
20260502210104 66 102 0.9 6.1 0.00 0.00 0.00 27 1017.9
20260502204601 66 304 3.5 7.8 0.00 0.00 0.00 27 1017.9
20260502203108 66 192 1.7 7.0 0.00 0.00 0.00 28 1018.0
20260502201553 66 258 1.7 7.0 0.00 0.00 0.00 26 1018.0
20260502200052 67 50 2.6 9.6 0.00 0.00 0.00 27 1018.2
20260502194559 66 203 3.5 9.6 0.00 0.00 0.00 27 1018.3
20260502193100 67 149 1.7 12.2 0.00 0.00 0.00 26 1018.3
20260502191605 67 302 5.2 11.3 0.00 0.00 0.00 26 1018.4
20260502190111 66 276 4.3 11.3 0.00 0.00 0.00 27 1018.4
20260502184554 64 104 2.6 8.7 0.00 0.00 0.00 29 1018.5
20260502183102 66 212 1.7 5.2 0.00 0.00 0.00 28 1018.6
20260502181553 65 121 1.7 8.7 0.00 0.00 0.00 28 1018.7
20260502180108 64 113 1.7 8.7 0.00 0.00 0.00 28 1018.8
20260502163108 61 220 1.7 11.3 0.00 0.00 0.00 30 1018.5
20260502161554 61 161 1.7 7.0 0.00 0.00 0.00 31 1018.6
20260502151559 57 0 0.0 3.5 0.00 0.00 0.00 37 1018.5
20260502130104 42 0 0.0 0.9 0.00 0.00 0.00 36 1017.7
20260502123058 42 262 0.0 1.7 0.00 0.00 0.00 35 1017.6
20260502121559 42 280 0.0 0.9 0.00 0.00 0.00 34 1017.6
20260502114553 43 0 0.0 0.9 0.00 0.00 0.00 33 1017.6
20260502113055 44 257 0.0 0.9 0.00 0.00 0.00 33 1017.7
20260502111554 44 257 0.0 0.9 0.00 0.00 0.00 34 1017.7
20260502110053 43 0 0.0 0.9 0.00 0.00 0.00 34 1017.7
20260502104554 44 0 0.0 0.9 0.00 0.00 0.00 33 1017.7
20260502103051 44 260 0.0 0.9 0.00 0.00 0.00 33 1017.7
20260502101552 44 0 0.0 0.9 0.00 0.00 0.00 33 1017.7
20260502070101 51 232 0.0 0.9 0.00 0.00 0.00 23 1019.0
20260502064549 51 243 0.0 1.7 0.00 0.00 0.00 23 1018.9
20260502063052 51 187 0.0 0.9 0.00 0.00 0.00 23 1018.8
20260502061550 51 0 0.0 0.9 0.00 0.00 0.00 23 1018.9
20260502060054 50 0 0.0 0.9 0.00 0.00 0.00 24 1019.0
20260502054557 49 0 0.0 0.0 0.00 0.00 0.00 25 1019.0
20260502053053 48 0 0.0 0.0 0.00 0.00 0.00 26 1019.1
20260502051549 49 0 0.0 0.9 0.00 0.00 0.00 26 1019.1